Location: Hains Lake
(37.8540°N, 99.8578°W)
Time: 22:14:19
(UTC+00:00)

deb Explorer IX - Pass Details

Date: 28 April 2021
Orbit: 541 x 1098 km, 38.8° (Epoch: 13 May)

Event Time Altitude Azimuth Distance (km) Brightness Sun altitude
Rises 13:01:06 0° 278° (W) 2,691 ? 13.4°
Reaches altitude 10° 13:03:19 10° 279° (W) 1,796 ? 13.9°
Maximum altitude 13:07:22 84° 5° (N) 559 ? 14.7°
Drops below altitude 10° 13:11:42 10° 97° (E) 1,904 ? 15.5°
Sets 13:14:06 0° 98° (E) 2,869 ? 16.0°
